Location: Bittelbronn
(48.4454°N, 8.5870°E)
Time: 13:28:34
(UTC+00:00)

SJ 16-02 - Pass Details

Date: 24 April 2025
Orbit: 587 x 597 km, 75.0° (Epoch: 15 May)

Event Time Altitude Azimuth Distance (km) Brightness Sun altitude
Rises 20:30:08 0° 324° (NW) 2,849 6.4 -17.4°
Reaches altitude 10° 20:32:56 10° 306° (NW) 1,943 5.1 -17.7°
Maximum altitude 20:35:50 18° 263° (W) 1,492 3.7 -18.0°
Drops below altitude 10° 20:38:44 10° 221° (SW) 1,933 3.8 -18.4°
Enters shadow 20:40:13 - 209° (SSW) 2,377 4.2 -18.5°
